Regional Weather Roundup
Issued by NWS

Home | Current Version | Previous Version | Text Only | Print | Product List | Glossary Off
Versions: 1 2 3 4 5 6 7 8 9 10 11 12 13 14 15 16 17 18 19 20 21 22 23 24 25 26 27 28 29 30 31 32 33 34 35 36 37 38 39 40 41 42 43 44 45 46 47 48 49 50

000
ASUS43 KLOT 051508
RWRIL

ILLINOIS REGIONAL WEATHER ROUNDUP
NATIONAL WEATHER SERVICE CHICAGO/ROMEOVILLE IL
900 AM CST FRI FEB 05 2016

NOTE: "FAIR" INDICATES FEW OR NO CLOUDS BELOW 12,000 FEET WITH NO
SIGNIFICANT WEATHER AND/OR OBSTRUCTIONS TO VISIBILITY.

* THESE STATIONS ARE NOT UNDER NWS QUALITY CONTROL. THEY ALSO MAY NOT
  REPORT WEATHER SUCH AS PRECIPITATION OR FOG.

ILZ001-002-007-009-015-016-024-051600-
NORTHWEST ILLINOIS

CITY           SKY/WX    TMP DP  RH WIND       PRES   REMARKS
MOLINE         PTSUNNY   27  17  66 NW5       30.40R WCI  22
STERLING*      CLOUDY    27  19  74 N7        30.36R WCI  19
SAVANNA*       CLOUDY    27  20  76 NE5       30.39S WCI  21
$$

ILZ003-004-008-010-011-017-018-051600-
NORTH CENTRAL ILLINOIS

CITY           SKY/WX    TMP DP  RH WIND       PRES   REMARKS
ROCKFORD       CLOUDY    26  19  74 N9        30.39R WCI  17
FREEPORT*      CLOUDY    24  19  81 N7        30.39R WCI  16
ROCHELLE*      CLOUDY    25  21  83 N5        30.38R WCI  19
DE KALB*       CLOUDY    26  22  85 NW7       30.36R WCI  18
PERU*          CLOUDY    28  23  79 N8        30.38S WCI  20
$$

ILZ005-006-012>014-019>023-051600-
NORTHEAST ILLINOIS

CITY           SKY/WX    TMP DP  RH WIND       PRES   REMARKS
CHICAGO-OHARE  CLOUDY    29  23  78 NW14      30.34R WCI  18
CHICAGO-MIDWAY FLURRIES  31  24  75 N12       30.34R WCI  22
AURORA         CLOUDY    28  23  81 NW15      30.36R WCI  16
LANSING*       CLOUDY    30  26  85 W8        30.34S WCI  22
JOLIET*        CLOUDY    30  26  83 CALM      30.36S
WAUKEGAN       CLOUDY    25  21  85 N8        30.34S WCI  16
DUPAGE AIRPORT CLOUDY    27  21  78 NW12      30.34R WCI  17
KANKAKEE*      CLOUDY    30  25  82 W9        30.37R WCI  21
WHEELING       PTSUNNY   27  22  81 NW14      30.36R WCI  16
MORRIS*        CLOUDY    28  24  84 NW12      30.34S WCI  18
ROMEOVILLE*    CLOUDY    29  25  84 NW12      30.35R WCI  19
NORTHERLY ISL    N/A     30  25  81 N7          N/A  WCI  23
$$

LMZ740>746-051600-
SOUTHERN LAKE MICHIGAN

STATION/POSITION SKY/WX   TEMP    WIND        PRES    VSBY  WAVE
                          AIR SEA DIR/SP/G                  HT/PER
                          (F)     (DEG/KT/KT) (MB)    (MI)  (FT/S)
HARRISON CRIB              31     320/ 10/ 10   N/A
BURNHAM HARBOR             30     310/  6/ 10   N/A
CALUMET HARBOR             29     240/  5/  8 1026.3R
BURNS HARBOR               29     210/  5/  8 1027.4R
MICHIGAN CITY              27     170/  7/  9   N/A
$$

ILZ025>027-034>036-040-047-049-050-058-095>099-051600-
WEST-CENTRAL ILLINOIS

CITY           SKY/WX    TMP DP  RH WIND       PRES   REMARKS
QUINCY         CLOUDY    25  19  78 N6        30.42R WCI  18
GALESBURG*     CLOUDY    26  20  78 N8        30.40R WCI  17
MACOMB*        MOSUNNY   25  21  84 NW5       30.43S WCI  19
JACKSONVILLE*  MOSUNNY   29  23  81 NW6       30.42R WCI  22
PITTSFIELD*    MOSUNNY   26  23  87 NW5       30.43R WCI  21
$$

ILZ028>032-037-038-041>044-048-051>054-059>061-051600-
CENTRAL ILLINOIS

CITY           SKY/WX    TMP DP  RH WIND       PRES   REMARKS
PONTIAC        PTSUNNY   29  24  79 NW12      30.38S WCI  20
BLOOMINGTON    CLOUDY    28  22  78 N10       30.39R WCI  19
DECATUR        CLOUDY    28  21  75 NW10      30.40S WCI  19
PEORIA         CLOUDY    27  18  69 N6        30.41R WCI  20
LACON*         CLOUDY    28  19  71 NW8       30.39R WCI  19
LINCOLN*       CLOUDY    29  23  78 CALM      30.41R
SPRINGFIELD    CLOUDY    29  23  78 NW5       30.41S WCI  24
TAYLORVILLE    MOSUNNY   28  23  80 N8        30.42S WCI  20
$$

ILZ033-039-045-046-055>057-062-063-051600-
EAST-CENTRAL ILLINOIS

CITY           SKY/WX    TMP DP  RH WIND       PRES   REMARKS
CHAMPAIGN      CLOUDY    27  22  81 NW13      30.39R WCI  16
RANTOUL*       MOSUNNY   30  24  78 NW14      30.38R WCI  20
MATTOON        PTSUNNY   28  22  78 NW10      30.39R WCI  19
PARIS*         SUNNY     30  26  85 NW8       30.40R WCI  22
$$

ILZ079-100>102-051600-
SOUTHWEST ILLINOIS

CITY           SKY/WX    TMP DP  RH WIND       PRES   REMARKS
ALTON          SUNNY     28  23  80 NW6       30.44R WCI  22
BELLEVILLE     SUNNY     30  25  81 N5        30.43R WCI  25
CAHOKIA*       SUNNY     31  22  69 N7        30.45R WCI  24
SPARTA*        SUNNY     31  23  72 NW6       30.45R WCI  25
$$

ILZ064>066-069>071-074>076-080>082-084>086-088>090-092>094-051600-
SOUTH-CENTRAL ILLINOIS

CITY           SKY/WX    TMP DP  RH WIND       PRES   REMARKS
CARBONDALE     SUNNY     33  23  66 W3        30.44R
CAIRO*         CLOUDY    33  28  84 W5        30.45R WCI  28
EFFINGHAM*     SUNNY     30  26  83 W9        30.43R WCI  22
MARION         MOSUNNY   36  23  60 SW7       30.44R WCI  30
MT. VERNON     SUNNY     30  23  74 N3        30.43R
CENTRALIA*     SUNNY     32  26  78 NW8       30.42R WCI  25
SALEM*         SUNNY     32  25  77 NW7       30.42R WCI  25
METROPOLIS*    SUNNY     33  27  76 SW5       30.45R WCI  29
$$

ILZ067-068-072-073-078-083-087-091-051600-
SOUTHEAST ILLINOIS

CITY           SKY/WX    TMP DP  RH WIND       PRES   REMARKS
LAWRENCEVILLE  SUNNY     32  24  72 SW7       30.42R WCI  26
FLORA*         SUNNY     32  25  74 NW6       30.42S WCI  27
FAIRFIELD*     CLOUDY    32  24  72 W3        30.42R
HARRISBURG*    MOSUNNY   32  26  78 CALM      30.44R
ROBINSON*      SUNNY     31  23  70 W7        30.42R WCI  25
CARMI*         SUNNY     33  25  75 SW7       30.43R WCI  26
$$

ABBREVIATIONS USED IN REMARKS
   TC - TEMPERATURE IN CELSIUS
  WCI - WIND CHILL INDEX
   HX - HEAT INDEX
  VSB - VISIBILITY
$$




USA.gov is the U.S. government's official web portal to all federal, state and local government web resources and services.